Location: Domicella
(40.8833°N, 14.5833°E)
Time: 20:32:32
(UTC+00:00)

CENTAUR R/B - Pass Details

Date: 15 May 2026
Orbit: 622 x 1558 km, 63.4° (Epoch: 6 June)

Event Time Altitude Azimuth Distance (km) Brightness Sun altitude
Exits shadow 23:31:15 14° 97° (E) 2,175 4.3 -29.6°
Drops below altitude 10° 23:33:41 10° 73° (ENE) 2,566 5.0 -29.5°
Sets 23:37:46 0° 50° (NE) 3,733 6.3 -29.4°
